Temperature
18 18 18 18 18 18 18 18 18 18 18 18 18 18 18 18 18 18 18 18 18 18 18 18 18 18 18 18 18 18 18 18 18 18 18 18 18 18 18 18 18 18 18
18 18 18 18 18 18 18 18 18 18 18 18 18 18 18 18 18 18 18 18 18 18 18 18 18 18 18 18 18 17 17 17 17 18 18 18 18 18 18 17 17 17 17
18 18 18 18 18 18 18 18 18 18 18 18 18 18 18 18 18 18 18 18 17 17 18 18 18 18 18 18 17 17 17 17 17 17 17 17 17 17 17 17 17 17 17
18 18 18 18 18 18 18 18 18 18 18 18 18 18 18 18 18 18 18 17 18 17 17 17 17 17 17 17 17 17 17 17 17 17 17 17 17 17 17 17 17 17 17
18 18 18 18 18 18 18 18 18 18 18 18 18 18 18 18 18 18 18 17 17 17 17 17 17 17 17 17 17 17 17 17 17 17 17 17 17 17 17 17 17 17 17
18 18 18 18 18 18 18 18 18 18 18 18 18 18 18 18 18 18 18 17 17 17 17 17 17 17 17 17 17 17 17 17 17 17 17 17 17 17 17 17 17 17 17
18 18 18 18 18 18 18 18 18 18 18 18 18 18 18 18 17 17 17 17 17 17 17 17 17 17 17 17 17 17 17 17 17 17 17 17 17 17 17 17 17 17 17
18 18 18 18 18 18 18 18 18 18 18 18 18 18 17 17 17 17 17 17 17 17 17 17 17 17 17 17 16 16 16 17 16 16 16 16 16 17 17 17 17 16 16
18 18 18 18 18 18 18 18 18 18 18 17 17 17 17 17 17 17 17 17 17 17 17 17 17 17 16 16 16 16 16 16 16 16 16 16 16 16 16 16 16 16 16
18 18 18 18 18 18 18 17 17 17 17 17 17 17 17 17 17 17 17 17 17 17 17 16 16 16 16 16 16 16 16 16 16 16 16 16 16 16 16 16 16 16 16
18 18 18 18 18 18 18 17 17 17 17 17 17 17 17 17 17 17 17 17 17 16 16 16 16 16 16 16 16 16 16 16 16 16 16 16 16 16 16 16 16 16 16
18 18 18 18 18 18 18 18 17 17 17 17 17 17 17 17 17 17 16 16 16 16 16 16 16 16 16 16 16 16 16 16 16 16 16 16 16 16 16 16 15 15 15
18 18 18 18 18 18 18 18 17 17 17 17 17 17 17 17 17 17 16 16 16 16 16 16 16 16 16 16 16 16 16 16 16 16 16 16 16 16 16 15 15 15 15
19 18 18 18 18 18 18 18 17 17 17 17 17 17 17 17 17 16 16 16 16 16 16 16 16 16 16 16 16 16 16 16 16 16 16 16 15 15 15 15 15 15 15
19 18 18 18 18 18 18 18 17 17 17 17 17 17 17 17 17 16 16 16 16 16 16 16 16 16 16 16 16 15 15 15 15 15 15 15 15 15 15 15 15 15 15
19 19 18 18 18 18 18 17 17 17 17 17 17 17 17 17 17 16 16 16 16 16 16 16 16 16 16 16 15 15 15 15 15 15 15 15 15 15 15 15 15 15 15
19 19 18 18 18 18 18 17 17 17 17 17 17 17 17 17 16 16 16 16 16 16 15 15 15 15 15 15 15 15 15 15 15 15 15 15 15 15 15 15 15 15 15
19 19 18 18 18 18 18 17 17 17 17 17 17 17 16 16 16 16 16 16 15 15 15 15 15 15 15 15 15 15 15 15 15 15 15 15 15 15 15 14 14 14 14
19 19 18 18 18 18 17 17 17 17 17 17 17 16 16 16 16 16 16 16 15 15 15 15 15 15 15 15 15 15 15 14 14 14 15 14 14 14 14 14 14 14 14
19 18 18 18 18 17 17 17 17 17 17 17 16 16 16 16 16 16 16 16 15 15 15 15 15 15 15 15 15 14 14 14 14 14 14 14 14 14 14 14 14 14 14
19 18 18 18 17 17 17 17 17 17 16 16 16 16 16 16 16 16 16 16 15 15 15 15 15 15 15 15 14 14 14 14 14 14 14 14 14 14 14 14 14 14 14
18 18 18 17 17 17 17 17 17 16 16 16 16 16 16 16 16 16 16 15 15 15 15 15 15 15 14 14 14 14 13 13 13 13 13 13 13 13 13 13 13 13 13
18 18 18 17 17 17 17 16 16 16 16 16 16 16 16 16 16 16 15 15 15 15 15 15 15 15 14 14 14 14 14 13 13 13 13 13 13 13 13 13 13 13 13
18 18 18 17 17 17 17 16 16 16 16 16 16 16 16 15 15 15 15 15 15 15 15 15 14 15 14 14 14 14 14 14 13 13 13 13 13 13 13 13 13 13 13
18 18 17 17 17 17 16 16 16 16 16 16 15 15 15 15 15 15 15 15 15 15 15 15 14 14 14 14 14 14 14 14 14 13 13 12 12 12 12 12 12 13 12
18 17 17 17 17 17 16 16 16 16 16 16 15 15 15 15 15 15 15 15 15 15 15 15 14 14 14 14 14 14 14 14 14 14 13 12 12 12 12 12 12 12 12
Wind_Speed
1 3 7 8 10 10 10 10 10 10 10 11 12 12 12 12 12 12 12 12 11 11 12 11 11 11 11 11 10 10 10 10 10 11 10 10 9 9 9 10 9 8 9
5 6 9 10 10 10 10 10 10 11 11 11 11 11 12 12 12 12 11 11 11 11 11 11 11 11 10 10 10 9 9 9 9 10 10 9 9 9 9 9 9 8 9
7 8 10 10 11 11 10 10 10 10 10 10 10 11 11 11 11 11 11 11 11 11 11 10 10 10 10 10 9 9 8 8 9 10 9 7 8 9 8 9 9 9 8
9 8 10 11 11 10 10 10 10 10 10 10 10 10 10 10 10 11 11 11 11 10 10 9 9 9 9 9 9 9 9 9 10 9 7 6 6 8 8 8 8 8 8
8 9 10 11 10 10 10 9 9 9 9 10 10 10 10 10 10 10 10 10 10 10 9 9 9 9 9 9 9 9 9 9 10 9 8 7 6 7 8 8 8 8 7
7 8 10 11 10 10 9 9 9 9 9 9 9 10 10 10 10 10 10 10 10 9 9 9 8 8 8 8 9 9 9 9 9 8 7 6 6 7 8 8 7 7 7
6 7 9 11 11 10 9 8 8 9 9 9 9 9 9 9 10 10 9 9 9 9 8 8 8 8 8 8 9 9 9 9 9 7 6 5 6 7 8 8 8 7 8
7 7 8 10 11 10 9 8 8 8 8 8 8 8 8 9 9 9 8 8 8 8 8 8 8 8 8 8 8 9 9 8 8 6 6 5 7 7 7 8 8 8 8
7 6 6 7 8 9 9 8 8 8 8 7 7 7 8 8 8 8 8 7 7 7 7 7 7 7 8 8 9 9 9 9 7 5 5 5 7 7 8 8 8 8 8
6 5 5 6 6 7 7 8 8 7 7 7 7 7 6 6 6 7 6 6 6 6 5 6 6 7 8 8 8 9 9 8 6 5 4 5 7 7 7 7 7 7 8
6 5 4 5 5 6 6 7 7 7 7 6 5 5 4 4 4 4 5 5 4 4 5 6 6 7 8 8 8 9 8 6 6 4 4 6 7 8 8 9 8 8 9
6 6 5 5 5 5 5 5 5 5 4 4 4 4 4 4 3 3 4 4 4 4 5 6 7 7 7 7 8 8 7 6 5 4 4 6 7 8 8 9 9 9 8
6 6 6 5 5 5 3 5 4 4 4 3 4 5 5 4 3 2 2 2 3 4 4 5 6 6 6 6 6 7 7 6 5 4 6 7 7 8 8 9 9 9 9
5 5 5 6 5 5 4 4 4 3 4 3 4 5 5 3 2 2 2 2 2 3 4 4 4 5 6 6 6 5 6 6 6 5 7 9 9 9 9 9 9 9 9
6 5 4 5 5 4 3 3 3 3 4 4 3 4 5 4 2 2 2 2 2 3 3 3 4 4 4 4 5 5 5 6 6 6 6 9 9 9 9 9 9 9 9
6 6 5 5 5 5 3 2 2 3 4 4 3 4 6 5 4 3 3 3 2 3 4 5 4 4 3 4 4 5 6 6 6 6 6 7 9 9 9 9 9 9 9
5 5 4 5 5 5 4 3 3 3 5 3 3 4 6 6 6 5 3 3 2 4 6 5 5 4 4 4 4 4 5 5 6 5 6 6 7 8 8 9 8 9 9
5 5 4 5 5 5 4 3 4 4 4 4 4 4 6 7 8 5 3 3 4 5 5 3 3 4 3 3 3 3 3 4 5 5 6 6 6 6 7 8 9 8 8
6 5 4 4 5 4 4 4 4 4 4 4 4 4 5 6 7 6 4 4 5 4 3 3 3 3 3 4 3 3 3 3 3 5 5 6 6 6 6 7 8 7 7
5 5 4 4 4 5 4 4 3 3 3 4 3 4 5 5 6 6 5 5 5 3 3 3 3 3 3 3 4 5 4 3 3 3 3 5 6 6 7 7 6 6 7
5 5 4 5 4 4 3 3 3 2 1 2 2 3 4 5 6 6 4 4 4 3 3 3 3 4 3 3 4 4 4 5 4 3 4 4 5 5 7 7 6 6 6
5 5 5 5 4 4 3 2 2 3 2 1 1 2 2 3 4 5 4 4 4 3 3 3 4 3 1 2 3 3 2 4 4 4 3 3 3 4 5 5 5 6 6
5 5 6 5 5 4 4 3 3 3 3 2 1 1 1 2 4 5 5 4 4 4 4 3 4 4 2 0 1 3 3 2 1 3 3 2 2 2 2 4 4 4 4
5 5 5 5 5 4 5 4 4 3 2 2 1 0 1 2 4 5 5 5 4 4 4 3 3 3 4 2 0 1 2 4 3 1 2 2 2 2 1 2 3 4 4
4 4 4 4 4 4 5 5 5 3 2 1 1 1 1 1 2 4 4 4 3 3 3 3 3 3 3 3 2 1 2 2 2 3 1 1 2 2 1 1 2 3 3
3 3 3 4 3 4 4 5 5 5 4 3 2 1 1 1 1 2 3 3 3 3 3 3 3 3 2 2 2 2 3 2 2 2 2 2 1 1 1 1 1 2 3
Wind_Direction
148 149 129 118 110 104 99 96 97 99 97 96 95 92 89 87 85 85 86 85 84 84 84 82 82 81 81 83 85 86 85 86 85 84 83 84 86 90 92 93 88 90 100
151 137 127 119 113 109 104 99 98 99 98 97 96 93 90 89 87 85 86 85 87 85 83 83 82 79 79 79 81 81 80 84 85 82 81 79 79 85 90 94 96 100 101
130 127 124 120 116 114 111 106 103 103 101 101 101 97 94 91 90 88 87 88 88 86 84 83 83 82 79 76 74 73 74 81 86 85 81 73 77 83 89 94 98 98 101
133 131 129 126 123 121 115 109 106 105 105 105 105 101 96 94 94 90 89 89 89 88 86 82 81 81 77 73 70 71 74 81 85 87 76 69 77 84 88 93 94 98 98
129 133 136 131 126 122 116 112 111 109 108 109 107 104 101 99 97 93 89 89 90 89 86 83 80 77 73 72 69 70 72 80 87 85 76 70 74 87 90 93 95 95 98
128 134 139 135 132 125 118 114 115 117 113 111 110 110 105 101 99 97 96 94 92 89 85 82 79 75 71 68 64 65 72 81 85 81 73 73 77 88 95 95 96 96 96
136 137 143 141 137 133 129 124 119 122 119 116 116 116 112 108 106 104 100 96 93 89 84 81 78 75 72 69 65 65 73 86 85 83 75 75 83 88 92 92 92 94 95
142 144 146 144 141 139 138 132 130 129 127 125 123 122 119 115 113 110 104 98 94 90 85 83 77 72 71 70 67 67 73 89 85 87 76 78 86 87 91 91 88 93 97
138 139 147 148 144 143 142 139 140 136 135 132 128 128 125 123 122 119 114 108 103 101 94 87 80 74 69 68 66 63 70 80 77 82 81 79 87 86 93 94 92 92 96
139 144 154 154 152 150 151 153 152 147 144 140 139 135 132 129 129 128 123 119 110 104 95 85 78 73 73 69 63 59 68 73 67 71 78 90 94 89 93 98 97 96 96
151 160 162 165 164 166 168 168 162 157 155 150 152 147 139 131 130 137 137 130 117 103 92 84 78 75 72 65 60 60 64 66 63 68 81 94 98 94 92 95 96 95 92
169 178 172 174 175 176 178 163 166 172 172 169 174 169 155 152 154 151 150 139 116 100 87 84 79 68 64 56 56 61 71 70 68 69 87 98 100 98 95 96 95 92 91
171 170 175 175 175 173 169 167 173 178 176 181 177 176 164 153 146 135 123 105 99 89 78 79 73 65 65 67 63 66 79 77 69 61 79 91 95 99 99 100 96 92 90
158 169 171 166 166 173 168 166 166 165 170 185 185 169 150 137 128 129 125 118 99 91 88 84 83 75 71 74 77 74 82 77 68 62 68 77 84 92 97 99 96 91 89
161 171 169 159 164 164 161 165 153 159 164 161 152 154 146 136 136 131 127 122 111 108 106 96 88 80 78 79 80 79 81 81 73 69 68 74 79 84 89 93 92 90 87
163 166 167 163 161 153 158 165 153 153 140 125 130 139 140 137 134 130 115 107 106 113 111 107 103 91 79 79 73 77 83 87 80 76 72 72 77 83 88 91 91 89 85
158 154 157 164 155 147 149 154 138 136 127 123 132 136 135 131 127 124 115 114 116 110 104 98 91 84 80 72 64 69 83 87 87 80 78 74 72 76 84 89 89 86 80
147 148 154 153 139 135 136 135 125 120 116 121 126 129 129 128 130 124 122 126 116 104 99 99 97 88 76 70 59 51 67 81 85 86 82 79 75 71 73 81 81 81 79
154 151 142 136 135 131 126 119 111 106 101 104 114 118 121 123 127 126 126 123 113 101 95 105 93 101 95 82 75 57 54 64 68 86 82 79 79 78 74 73 72 70 71
150 142 131 126 124 119 109 101 88 78 82 87 97 114 118 123 129 122 121 124 119 107 94 103 106 90 101 99 83 62 43 45 55 69 85 80 75 77 75 71 66 59 59
135 137 137 133 131 124 121 121 115 112 98 83 86 101 113 123 133 126 129 131 125 120 127 125 113 96 87 102 87 58 30 31 46 50 60 72 71 76 77 74 72 64 51
145 143 142 141 142 139 144 149 144 136 124 111 82 76 105 120 133 137 138 143 138 125 112 115 114 113 122 118 116 102 49 18 19 30 44 77 74 73 76 77 75 67 55
145 152 153 154 148 146 141 115 97 79 69 56 53 43 24 108 115 125 139 139 142 140 147 151 142 136 152 196 135 138 143 177 348 6 26 42 59 67 64 73 77 74 66
169 160 152 154 150 148 141 136 142 140 148 189 188 144 39 91 115 121 132 142 149 149 155 167 152 151 149 164 43 99 148 152 153 131 3 4 23 47 37 76 76 74 74
162 154 151 153 155 153 148 148 147 143 158 151 124 104 75 78 110 122 134 141 144 148 157 160 150 158 161 167 163 140 104 84 122 148 181 318 7 352 360 73 92 87 84
152 152 149 150 167 164 151 149 152 154 151 137 142 139 110 72 86 122 135 140 149 157 166 166 166 168 170 165 157 159 157 153 167 151 172 187 201 307 349 360 81 109 103
Height
1535 1534 1534 1534 1534 1533 1533 1533 1532 1532 1532 1532 1532 1531 1531 1531 1531 1531 1531 1531 1531 1531 1530 1530 1530 1530 1530 1530 1530 1530 1530 1529 1529 1529 1529 1529 1529 1529 1529 1529 1529 1529 1529
1535 1534 1535 1534 1534 1534 1533 1533 1533 1532 1532 1532 1532 1532 1532 1532 1532 1532 1532 1532 1532 1531 1531 1531 1531 1531 1531 1531 1531 1531 1530 1530 1530 1530 1530 1530 1530 1530 1530 1530 1530 1529 1529
1535 1535 1535 1535 1535 1534 1534 1534 1533 1533 1533 1533 1533 1533 1533 1533 1533 1533 1533 1532 1532 1532 1532 1532 1532 1532 1532 1531 1531 1531 1531 1531 1531 1531 1531 1530 1530 1530 1530 1530 1530 1530 1530
1536 1536 1536 1536 1535 1535 1535 1534 1534 1534 1534 1534 1534 1534 1534 1534 1534 1534 1534 1533 1533 1533 1533 1533 1533 1532 1532 1532 1532 1532 1532 1532 1532 1532 1531 1531 1531 1531 1531 1531 1530 1530 1530
1536 1536 1536 1536 1536 1536 1535 1535 1535 1535 1535 1535 1534 1534 1534 1534 1534 1534 1534 1534 1534 1534 1534 1534 1534 1533 1533 1533 1533 1533 1533 1532 1532 1532 1532 1532 1531 1531 1531 1531 1531 1531 1531
1537 1537 1537 1537 1537 1536 1536 1536 1536 1535 1535 1535 1535 1535 1535 1535 1535 1535 1535 1535 1535 1535 1535 1535 1535 1535 1534 1534 1534 1534 1533 1533 1533 1533 1532 1532 1532 1532 1531 1531 1531 1531 1531
1537 1538 1537 1537 1537 1537 1537 1536 1536 1536 1536 1536 1536 1536 1537 1537 1537 1537 1536 1536 1536 1536 1536 1536 1536 1536 1535 1535 1535 1534 1534 1534 1534 1533 1533 1532 1532 1532 1532 1532 1531 1531 1531
1538 1538 1538 1538 1538 1538 1538 1537 1537 1537 1537 1537 1537 1537 1537 1537 1538 1538 1538 1538 1537 1537 1537 1537 1537 1537 1537 1536 1536 1535 1535 1535 1534 1534 1533 1533 1532 1532 1532 1532 1532 1532 1532
1539 1539 1539 1539 1539 1539 1539 1539 1538 1538 1538 1538 1538 1538 1538 1539 1539 1539 1539 1539 1539 1538 1538 1538 1538 1538 1538 1537 1537 1536 1536 1536 1535 1535 1534 1534 1533 1533 1532 1532 1532 1532 1532
1539 1539 1539 1539 1539 1539 1539 1539 1539 1539 1539 1539 1539 1539 1539 1540 1540 1540 1540 1540 1540 1540 1540 1539 1539 1539 1539 1538 1538 1537 1537 1536 1536 1536 1535 1534 1534 1533 1533 1532 1532 1532 1532
1540 1540 1540 1540 1540 1540 1540 1540 1540 1540 1540 1540 1540 1540 1540 1540 1541 1541 1541 1541 1541 1541 1541 1540 1540 1540 1539 1539 1539 1538 1538 1537 1537 1536 1536 1535 1534 1534 1533 1533 1533 1532 1532
1540 1540 1540 1540 1540 1540 1541 1541 1541 1541 1541 1541 1541 1541 1541 1541 1541 1542 1542 1542 1542 1542 1542 1541 1541 1541 1540 1540 1539 1539 1538 1538 1537 1537 1536 1536 1535 1534 1534 1534 1533 1533 1533
1540 1540 1540 1540 1541 1541 1541 1541 1541 1541 1541 1541 1542 1542 1542 1542 1542 1542 1542 1542 1542 1542 1542 1542 1542 1542 1541 1541 1540 1540 1539 1539 1538 1537 1537 1537 1536 1535 1535 1534 1534 1534 1533
1540 1540 1540 1540 1541 1541 1541 1541 1541 1541 1541 1541 1542 1542 1542 1543 1543 1543 1542 1543 1543 1543 1542 1542 1542 1542 1542 1542 1541 1540 1540 1539 1539 1538 1538 1537 1537 1536 1536 1535 1535 1535 1534
1539 1539 1540 1540 1540 1541 1541 1541 1541 1541 1541 1542 1542 1543 1543 1543 1543 1543 1543 1543 1543 1543 1543 1543 1543 1543 1542 1542 1542 1541 1541 1540 1540 1539 1539 1538 1538 1538 1537 1537 1536 1536 1536
1538 1539 1539 1539 1540 1540 1540 1541 1541 1541 1542 1542 1542 1543 1543 1543 1543 1543 1543 1543 1543 1543 1543 1543 1543 1543 1543 1543 1542 1542 1541 1541 1541 1540 1540 1540 1539 1539 1539 1538 1537 1537 1537
1538 1539 1539 1539 1539 1540 1540 1540 1541 1541 1542 1542 1542 1543 1543 1543 1543 1543 1543 1543 1543 1543 1543 1543 1543 1543 1543 1543 1543 1543 1542 1542 1542 1541 1541 1541 1540 1540 1540 1540 1539 1538 1538
1537 1538 1538 1539 1539 1539 1539 1540 1540 1541 1541 1542 1542 1543 1543 1543 1543 1543 1542 1543 1543 1543 1543 1543 1543 1543 1543 1543 1543 1543 1543 1543 1542 1542 1542 1542 1541 1541 1541 1541 1540 1540 1539
1536 1537 1537 1538 1538 1539 1539 1539 1540 1540 1541 1541 1541 1542 1542 1542 1542 1542 1542 1542 1543 1543 1543 1543 1543 1543 1543 1543 1543 1543 1543 1543 1543 1543 1543 1543 1543 1542 1542 1542 1542 1541 1541
1536 1536 1537 1537 1538 1538 1539 1539 1539 1540 1540 1541 1541 1542 1542 1542 1542 1542 1542 1542 1542 1543 1543 1543 1543 1543 1543 1544 1543 1544 1544 1544 1544 1544 1544 1544 1544 1544 1543 1543 1542 1542 1542
1535 1535 1536 1536 1537 1537 1538 1538 1538 1539 1540 1540 1540 1541 1541 1541 1541 1541 1541 1541 1542 1542 1543 1543 1543 1543 1543 1544 1544 1544 1545 1545 1545 1545 1545 1545 1545 1544 1544 1544 1543 1543 1542
1534 1534 1535 1535 1536 1536 1537 1537 1538 1538 1539 1539 1539 1540 1540 1540 1540 1540 1540 1541 1541 1542 1542 1543 1543 1543 1543 1544 1544 1544 1545 1547 1546 1546 1545 1545 1545 1545 1544 1544 1544 1543 1543
1532 1533 1533 1534 1535 1535 1536 1536 1537 1538 1538 1538 1538 1539 1539 1539 1539 1539 1540 1540 1540 1541 1541 1542 1542 1543 1543 1544 1544 1544 1545 1545 1546 1546 1546 1546 1546 1545 1545 1544 1543 1543 1542
1531 1532 1533 1533 1534 1534 1535 1535 1536 1536 1536 1537 1537 1537 1538 1538 1538 1538 1539 1539 1540 1540 1540 1541 1542 1542 1543 1543 1543 1543 1544 1544 1545 1545 1546 1546 1545 1545 1544 1544 1543 1543 1542
1530 1531 1532 1533 1533 1533 1534 1534 1535 1535 1536 1536 1536 1536 1536 1537 1537 1537 1538 1538 1538 1539 1540 1540 1540 1541 1542 1542 1542 1542 1543 1543 1543 1543 1544 1545 1545 1544 1544 1543 1543 1542 1541
1529 1530 1530 1531 1532 1532 1533 1533 1534 1534 1534 1534 1535 1535 1535 1535 1536 1536 1536 1537 1537 1538 1538 1539 1539 1540 1540 1541 1541 1541 1542 1542 1542 1542 1542 1542 1543 1543 1543 1542 1542 1541 1541